Dewpoint
54 54 55 55 55 55 55 56 55 55 54 54 55 55 55 55 55 56 55 55 55 55 56 56 56 56 56 57 57 58 57 53 49 49 49 44 66 64 64 65 66 67 70 66 59 58 57 52 48 56 58 57 56 55 58 60 62 63 62 62 54 58 57 60 61 61 61 61 63 65 65 63 64 65 66 64 62 62 59 59 58 59 58 56 57 59 60 61
54 55 56 55 55 56 55 55 55 55 55 55 56 55 55 55 55 55 55 55 55 55 56 56 56 56 56 57 58 58 57 52 48 44 41 55 64 65 64 63 65 66 69 62 58 53 51 48 44 54 57 54 56 53 59 60 61 61 58 55 55 59 60 63 63 64 62 61 63 65 65 65 65 65 65 62 60 60 59 59 58 58 57 57 58 59 60 60
55 56 56 55 55 56 55 55 55 55 55 55 55 55 55 55 55 56 55 55 55 55 56 56 55 56 56 57 57 59 55 51 49 44 41 68 66 66 63 64 65 66 65 58 57 50 46 45 45 50 56 53 54 55 58 60 61 62 64 57 58 61 61 64 64 64 64 64 64 64 65 64 64 63 64 62 60 59 59 56 58 58 57 57 58 59 59 59
55 56 56 55 55 55 55 55 55 55 55 55 55 55 55 55 55 55 55 55 55 55 55 56 56 56 56 57 58 58 53 50 43 44 51 68 67 65 64 66 64 65 64 58 51 46 45 43 46 48 53 53 54 56 56 60 59 60 59 56 57 59 59 64 63 65 65 67 64 65 65 65 64 64 65 63 58 59 59 56 57 58 57 57 56 57 57 57
56 55 55 55 55 55 55 55 55 55 55 55 55 55 55 55 55 55 55 55 55 55 55 55 56 56 56 58 58 56 53 34 44 52 60 67 65 64 64 65 65 60 61 55 46 45 43 44 45 46 51 51 53 54 56 58 58 59 57 57 55 53 54 63 65 66 63 66 66 65 64 65 67 65 65 62 59 56 56 54 56 58 58 57 56 56 56 56
55 55 55 55 54 54 54 54 54 55 55 55 55 55 55 55 55 55 55 55 55 55 55 55 56 56 57 58 56 54 47 24 43 53 63 65 65 63 66 66 66 60 60 50 43 42 39 43 43 46 51 49 50 51 55 57 58 57 57 59 53 49 53 56 61 65 65 65 65 64 65 66 65 65 66 64 64 59 56 54 54 58 57 56 56 56 55 54
55 55 55 55 55 54 54 54 54 55 54 54 54 55 55 55 55 55 55 55 55 55 56 56 56 56 57 58 53 48 44 36 51 58 65 65 65 64 67 67 69 64 59 47 42 37 40 44 44 48 49 47 48 49 56 56 57 57 56 54 52 47 46 49 57 67 65 66 65 66 67 65 65 62 66 65 66 62 58 56 56 57 57 56 56 55 53 54
55 55 55 55 54 54 54 54 54 54 54 54 54 55 55 55 55 55 55 55 55 55 56 56 56 56 57 52 50 48 41 22 47 55 66 63 59 60 64 52 54 59 58 45 40 36 41 45 44 49 47 45 45 48 55 55 56 54 60 50 47 46 45 45 57 60 63 66 67 66 65 64 65 65 64 65 64 60 58 56 57 57 57 56 55 53 54 54
54 55 55 54 54 54 54 54 54 54 54 54 54 54 54 54 55 55 55 55 55 55 55 56 56 57 57 54 45 35 22 45 45 50 55 45 44 54 52 46 48 58 56 45 39 36 39 45 44 46 43 43 45 46 55 54 53 54 53 49 45 42 45 43 52 64 64 66 67 66 64 65 67 66 64 67 65 63 58 56 56 57 56 56 54 54 54 53
55 55 54 54 54 54 54 54 54 54 54 54 54 54 54 54 54 55 55 55 55 56 56 56 56 56 54 50 45 30 45 47 47 45 37 39 44 52 49 43 52 58 50 41 35 33 35 43 42 44 43 43 46 45 53 54 51 52 52 47 43 44 45 44 50 63 63 64 66 64 64 64 63 63 60 65 64 62 60 56 56 55 55 55 53 54 54 53
54 55 54 54 53 54 54 54 54 54 54 55 54 54 54 54 54 55 56 56 56 56 56 56 56 56 47 44 41 31 49 44 46 45 40 37 44 44 45 47 49 49 42 37 33 33 34 38 40 44 43 41 45 44 50 53 49 49 49 44 42 44 46 46 53 57 60 63 67 65 64 65 65 63 62 65 66 64 61 55 55 54 54 54 54 54 55 54
54 54 54 54 53 53 54 54 54 54 54 54 54 54 54 55 55 55 56 57 57 56 56 56 57 54 48 47 40 35 48 43 45 47 41 39 40 41 46 46 43 41 37 35 33 33 33 32 36 43 35 45 41 44 50 53 50 46 45 42 41 44 48 47 52 56 59 62 65 65 64 62 63 62 64 66 64 63 61 56 55 54 54 53 55 54 56 54
54 54 54 54 54 54 54 54 54 54 54 54 54 54 54 55 55 56 57 57 57 56 56 57 57 53 51 43 30 42 46 42 46 50 48 44 44 44 46 42 39 39 36 34 30 30 30 31 33 37 36 43 40 42 47 51 49 46 44 41 42 43 48 48 53 54 60 62 64 62 56 56 62 62 65 66 64 63 61 57 55 54 54 54 55 55 55 55
53 53 54 54 54 54 54 54 55 54 54 54 54 53 54 54 55 57 57 57 56 56 57 57 55 51 48 44 33 36 47 43 46 50 49 47 44 44 42 39 38 37 35 33 30 30 30 31 32 34 41 42 42 46 44 47 48 44 43 42 40 42 50 49 49 54 62 61 61 61 56 58 62 63 67 66 66 60 60 56 55 55 54 54 55 54 54 55
55 54 54 54 54 54 54 54 55 54 54 54 54 53 54 54 56 58 56 55 57 57 57 58 55 53 45 36 39 44 64 46 42 45 48 44 41 39 40 38 37 36 35 34 31 31 32 30 30 32 40 44 44 42 41 41 45 45 42 40 39 40 49 50 51 52 60 61 62 59 56 59 60 62 67 68 68 66 60 58 55 55 55 53 54 54 53 55
55 55 55 55 54 55 54 54 54 54 54 54 52 53 54 55 57 56 57 58 58 58 56 51 51 50 47 41 37 54 43 40 41 44 43 41 37 35 38 37 36 35 34 34 35 34 32 32 31 33 41 42 41 39 38 39 40 43 41 38 38 39 43 50 49 55 62 58 62 58 54 58 59 62 66 68 64 63 63 60 58 56 55 54 54 53 53 55
55 55 55 55 55 54 54 54 54 54 54 53 52 53 54 57 58 57 57 59 56 56 51 52 47 44 44 41 40 35 36 37 40 41 39 40 36 35 35 35 34 33 32 32 33 34 29 32 31 31 35 40 37 37 36 35 38 41 41 39 38 38 44 46 55 60 60 56 59 57 58 59 59 65 65 64 65 61 61 59 60 58 57 57 55 53 53 55
55 55 55 55 55 55 54 54 54 54 53 52 52 52 52 56 58 59 57 59 48 51 50 49 45 41 37 39 34 32 36 38 37 38 38 39 40 36 34 32 33 33 33 30 30 28 27 25 27 24 27 36 36 33 34 33 35 37 40 39 37 39 42 52 49 57 60 63 60 58 61 61 58 62 64 65 66 62 60 58 60 59 58 58 55 53 53 54
55 55 55 55 55 55 54 54 54 53 53 53 53 54 55 56 54 56 49 49 46 42 40 34 37 34 26 31 33 34 37 40 36 36 39 40 43 36 34 32 31 32 31 28 26 26 25 23 27 27 26 32 35 31 30 33 34 35 38 38 36 38 45 47 51 54 60 57 52 57 57 58 58 56 61 65 66 63 61 63 60 61 59 59 58 54 53 53
55 55 55 55 55 55 55 54 54 52 52 52 51 52 51 44 44 43 45 41 36 34 31 27 27 32 27 29 31 33 34 35 36 35 38 41 40 39 36 33 29 30 29 25 21 24 22 22 26 23 23 24 32 34 35 35 35 35 37 38 36 35 44 47 50 50 61 58 51 51 53 56 57 57 63 63 63 62 64 64 59 60 61 59 57 54 53 54
55 55 55 55 54 54 54 54 53 52 52 51 49 48 43 29 24 29 38 37 32 28 28 27 20 28 26 28 28 29 27 33 34 36 36 40 40 38 36 33 29 26 27 24 19 24 22 20 26 19 18 20 27 36 36 37 36 35 33 36 36 33 38 51 52 48 60 59 46 48 51 55 56 57 61 64 64 62 60 61 61 59 59 61 59 56 55 55
55 55 55 54 54 54 54 53 52 52 52 51 50 42 36 30 31 30 29 22 28 23 24 25 23 25 31 28 25 25 27 30 34 36 37 37 37 34 33 30 25 22 24 24 22 23 24 19 24 21 21 30 28 31 34 35 36 35 32 34 31 32 32 34 36 40 48 50 50 47 48 51 55 56 52 55 58 60 61 61 58 61 61 61 60 57 56 54
55 55 54 54 54 53 53 52 52 51 52 49 44 38 31 31 30 34 25 24 21 20 17 19 19 26 29 30 26 23 20 22 31 33 35 35 32 32 30 29 25 21 20 23 20 21 21 18 22 23 28 33 32 34 38 38 36 35 34 34 34 34 30 33 35 39 42 48 49 48 45 51 53 50 47 47 51 58 58 63 64 63 61 62 61 60 57 55
55 55 54 54 54 53 53 52 51 51 49 47 41 33 32 32 33 31 28 21 22 19 15 15 16 24 25 24 24 21 18 16 24 32 33 32 27 30 30 26 24 20 18 22 21 19 18 16 19 27 31 36 37 38 38 37 34 35 34 33 34 32 30 32 35 38 40 47 49 44 53 56 49 48 47 47 50 57 60 64 66 66 66 62 62 63 61 57
55 55 55 54 53 53 51 49 45 44 42 39 34 31 33 37 39 34 29 26 18 18 15 14 16 22 20 21 20 18 16 15 21 31 29 30 26 27 27 26 24 19 19 21 21 19 18 18 20 33 36 38 38 36 35 35 33 32 34 34 34 33 30 31 35 36 33 37 41 36 45 49 54 46 50 52 51 55 59 63 65 63 64 65 61 62 63 61
55 55 54 54 54 52 50 48 40 35 33 32 32 31 35 35 36 38 32 27 13 15 14 13 22 21 21 19 17 18 16 9 13 25 26 26 30 23 25 24 23 19 20 22 20 20 18 22 27 34 36 36 34 33 34 34 31 30 31 35 34 33 32 30 29 31 35 38 38 36 40 45 49 48 52 58 55 54 62 61 65 63 65 64 63 63 61 61
54 54 54 53 53 51 49 35 34 34 33 33 32 34 35 35 48 37 29 19 15 13 6 20 18 18 21 17 15 16 9 11 19 21 21 25 24 21 22 24 24 26 23 23 22 18 20 30 34 33 37 34 30 29 32 31 29 29 30 33 35 33 33 31 31 30 31 40 41 40 38 43 48 51 57 62 59 59 57 60 63 64 65 62 63 64 65 62
54 54 53 52 52 51 52 48 38 32 33 37 35 32 37 43 44 35 30 14 10 6 18 19 15 18 14 13 13 8 10 17 16 19 17 21 24 22 25 24 24 27 24 22 18 20 22 33 33 32 34 31 26 26 30 32 29 29 28 29 33 34 33 32 31 31 31 30 31 31 35 42 43 54 58 61 58 58 58 60 61 63 63 64 65 64 65 61
54 53 53 52 52 51 51 48 44 37 34 33 35 35 35 43 32 32 28 18 10 12 22 16 16 15 10 13 10 7 14 15 13 18 19 18 21 21 23 25 24 25 25 21 17 22 26 32 34 33 31 29 29 27 28 32 29 28 31 31 31 31 32 32 30 30 32 34 33 32 31 38 47 54 55 59 60 58 57 61 63 64 64 64 64 65 67 65
53 52 52 52 51 51 49 48 44 35 35 36 36 41 37 32 31 22 21 17 13 13 17 13 13 13 11 11 7 11 14 14 16 17 16 14 17 20 20 25 24 25 28 24 23 27 29 38 35 32 31 27 30 32 31 33 30 24 29 29 28 26 28 31 30 32 32 33 32 31 32 34 44 53 52 56 52 55 61 62 64 65 67 68 67 67 67 65
52 52 51 51 51 45 41 38 35 33 37 42 39 36 36 33 27 20 11 12 12 13 11 14 10 11 9 8 6 12 13 16 16 15 14 17 16 20 22 23 24 20 25 25 27 27 28 29 29 25 27 24 27 26 31 32 31 25 26 28 26 28 30 32 30 32 31 31 32 31 31 32 41 51 55 52 56 53 53 55 57 63 64 67 67 67 64 61
51 50 51 52 51 51 41 36 42 39 41 41 39 34 31 25 24 21 17 12 8 11 8 9 8 8 8 7 9 12 13 15 16 14 14 14 14 16 20 22 24 34 21 23 22 23 26 26 26 27 32 25 25 26 26 28 28 28 27 27 22 24 25 25 30 27 28 30 31 32 30 35 44 48 49 50 50 51 52 52 52 53 55 64 66 66 65 64
50 50 48 49 52 48 41 43 46 48 46 41 38 36 31 29 19 12 9 8 9 9 9 9 7 6 7 10 12 13 15 14 15 15 15 15 14 14 19 19 16 21 17 19 15 18 19 22 21 20 24 30 24 22 21 20 22 25 26 24 22 21 22 25 27 28 28 27 28 29 27 40 48 47 49 49 50 51 52 53 53 54 56 60 63 65 67 65
50 50 52 52 49 45 42 48 48 48 41 41 40 34 28 24 19 23 7 6 7 10 8 7 6 6 6 8 10 9 12 13 14 11 13 16 12 18 19 19 19 19 19 13 10 15 13 13 15 16 15 24 22 19 17 16 17 20 21 19 21 24 20 24 23 23 23 27 29 27 25 44 42 46 47 48 50 51 51 52 54 55 56 57 61 67 67 67
49 51 53 53 53 49 46 46 49 48 43 38 34 32 28 20 16 12 8 9 8 8 7 6 5 5 9 12 13 14 13 15 13 14 12 12 14 16 16 14 23 20 19 12 11 14 11 11 14 15 16 18 17 17 19 18 16 18 18 19 18 20 23 17 18 20 21 21 23 26 36 40 43 48 47 48 47 49 50 51 53 54 55 56 56 65 65 67
50 50 51 49 49 35 40 43 48 45 42 35 31 24 16 18 13 14 13 12 6 6 6 8 7 6 6 13 14 11 13 13 12 12 9 10 13 14 18 18 19 20 19 20 11 8 12 13 15 15 15 16 16 19 19 19 17 18 18 19 19 20 17 18 20 16 19 20 26 32 41 44 46 45 45 46 47 47 48 50 51 52 53 56 56 56 62 67
52 46 47 32 30 34 42 44 44 44 40 31 35 19 16 15 16 15 17 15 7 4 5 6 5 8 9 10 11 14 14 13 12 12 15 16 15 18 17 18 19 19 20 19 17 11 12 12 13 15 14 16 17 18 19 19 18 17 16 17 16 22 21 26 16 22 17 14 20 34 39 41 42 47 46 45 45 46 48 49 50 53 54 55 58 58 59 58
41 38 34 28 29 37 44 46 44 41 36 32 26 25 17 14 16 15 15 14 12 9 3 6 5 8 8 8 7 11 12 10 11 10 10 10 12 19 18 19 18 18 19 19 20 17 16 13 13 13 14 17 18 18 18 19 19 18 16 21 16 20 23 26 27 19 12 12 19 36 38 39 43 44 43 44 43 45 48 50 50 51 53 55 57 59 60 60
47 38 32 28 28 28 39 48 39 39 34 32 19 23 15 15 16 16 16 16 13 11 12 7 9 11 9 8 11 10 9 6 9 8 13 14 14 19 19 23 18 18 18 19 18 17 17 12 13 13 13 15 16 15 16 13 16 18 20 18 19 21 18 23 25 28 24 19 16 33 35 37 44 47 47 47 46 47 47 48 49 50 53 54 57 58 60 60
40 37 27 29 27 30 43 41 35 32 39 25 20 17 19 16 16 16 15 18 10 17 14 10 11 11 11 11 10 8 11 9 8 11 13 15 17 19 19 22 22 20 17 19 18 19 16 24 15 12 13 13 14 15 15 14 12 15 17 18 18 20 19 17 17 20 19 22 19 26 33 43 45 47 48 48 48 48 48 48 50 51 53 54 57 58 59 60
30 28 27 30 27 33 33 30 30 23 21 20 20 20 21 20 17 16 16 16 14 14 15 12 11 10 13 12 9 10 9 7 12 10 13 15 16 16 19 21 22 20 20 18 18 16 21 18 16 13 12 11 16 18 18 18 18 17 13 15 17 18 16 21 23 16 14 17 20 22 29 44 45 47 49 49 48 48 48 49 49 51 52 54 56 58 59 59
32 29 28 29 28 29 28 25 22 24 20 19 19 20 22 30 18 17 16 16 16 11 16 17 16 11 11 10 11 11 9 10 12 13 14 15 20 18 18 22 20 23 20 18 16 19 24 25 13 13 10 10 16 17 19 18 19 18 18 15 12 14 16 19 20 20 15 15 17 38 38 44 47 49 49 48 48 48 48 48 49 50 52 52 54 56 57 59
29 25 29 30 30 27 25 25 28 26 22 20 21 21 22 21 18 18 17 18 15 15 16 17 17 17 17 15 12 11 15 17 14 15 19 20 20 20 21 22 23 21 23 14 14 17 31 23 17 18 20 16 17 16 17 17 17 17 18 19 18 18 17 18 20 26 28 20 20 35 38 41 46 49 50 48 50 48 49 48 49 49 51 51 52 55 56 57
25 25 26 27 30 29 26 25 23 22 21 22 22 20 22 22 22 19 19 19 18 18 17 15 16 18 17 15 14 14 17 19 20 19 19 19 19 19 20 23 24 21 24 25 28 19 19 27 24 21 21 19 14 16 13 15 15 15 14 18 21 20 20 20 22 28 28 26 18 20 38 43 45 49 48 47 46 46 46 47 48 49 50 49 51 53 54 56
28 24 24 24 29 27 24 22 24 22 24 24 22 21 20 21 22 22 21 20 21 18 19 18 18 17 17 18 19 17 17 16 21 22 20 19 17 18 18 21 23 20 20 26 40 23 25 22 28 24 17 16 15 16 16 16 14 14 18 18 22 20 23 24 22 28 24 33 34 27 43 46 47 49 47 46 46 47 47 46 47 49 50 49 49 50 53 53
31 35 22 24 24 21 25 25 22 23 24 26 24 22 20 19 20 22 22 20 22 21 19 19 19 17 17 16 17 16 17 18 18 23 23 19 17 17 18 18 18 17 33 42 33 22 25 22 28 33 29 28 32 31 22 20 14 14 16 18 18 19 21 23 24 25 21 28 32 43 44 44 45 46 46 46 46 46 45 47 47 47 48 50 52 50 50 52
29 29 29 27 25 23 22 24 23 25 25 26 31 23 23 21 20 20 22 23 22 21 22 23 19 21 22 21 22 21 20 18 23 24 23 21 20 17 18 18 17 23 39 35 20 22 27 20 21 25 26 22 15 19 16 18 17 16 14 14 16 20 24 24 22 23 40 29 23 45 47 42 44 45 46 47 46 47 46 47 47 47 48 48 49 51 53 49
33 27 29 34 33 28 29 23 25 21 22 25 29 24 22 20 21 23 20 22 21 22 21 28 23 23 21 23 25 26 29 28 28 27 27 24 21 21 18 17 16 21 27 16 16 23 25 19 21 17 18 15 14 13 12 14 16 17 15 14 16 18 24 23 30 30 36 32 34 45 46 44 44 44 46 47 48 47 46 46 47 47 47 49 51 49 48 48
31 29 26 29 32 27 28 26 27 24 25 26 27 26 22 22 23 24 24 22 23 22 26 27 23 24 25 27 28 30 33 25 31 33 29 26 23 23 21 20 18 16 16 18 19 30 28 20 20 15 18 13 13 12 12 11 13 12 11 15 15 15 20 27 28 29 32 41 42 40 44 43 41 43 45 47 48 49 49 48 47 47 45 49 48 50 48 48
38 38 31 29 35 29 29 27 26 27 26 31 32 28 25 23 22 22 22 26 24 22 24 26 21 21 23 27 34 32 34 33 32 32 32 30 24 30 27 26 20 18 16 20 19 25 26 27 24 16 19 16 12 10 7 9 14 12 12 13 13 15 22 24 28 33 34 33 36 38 43 43 44 46 46 47 49 49 50 49 47 49 47 45 46 47 49 49
37 44 47 41 33 32 35 30 31 30 26 31 30 23 28 25 25 25 24 24 25 26 27 24 24 27 27 29 30 28 27 32 33 31 29 28 27 28 27 25 20 26 23 21 23 19 17 27 20 20 17 18 13 7 10 9 9 10 14 14 14 15 20 25 25 28 28 34 37 38 42 44 44 47 46 48 48 49 50 51 50 48 48 49 48 46 47 50
45 40 43 41 33 36 34 26 30 31 30 32 32 28 29 25 24 25 26 25 25 27 25 25 28 28 30 31 31 29 27 25 25 26 25 22 20 20 19 19 21 26 23 23 23 20 24 26 18 16 13 17 13 8 8 10 9 7 10 11 15 17 20 22 30 34 38 35 36 39 46 44 43 46 44 45 46 48 49 50 50 50 50 49 49 49 50 47